Weather in Staryye Karachi

Russia / Novosibirsk Oblast     55°29′39″N   77°02′41″E
temp.,
°C
wind,
m/s
gust,
m/s
humid.,
%
clouds,
%
prec.,
mm/h
press.,
hPa
HPBL,
m
28 february, sun
sun2801:00−30s349919 0.0 103545
04:00−30sse349971 0.0 103353
07:00−29se449970 0.0 103267
10:00−26se599798 0.0 1030230
13:00−22ese599499 0.0 1028287
16:00−19ese6993100 0.0 1025335
19:00−18ese5109497 0.1 1022389
22:00−18e5996100 0.1 1019259
1 march, mon
mon101:00−17e61195100 0.1 1016275
04:00−15e61195100 0.5 1012324
07:00−13ene71195100 1.5 1009338
10:00−13ene71293100 0.4 1008352
13:00−12ene61095100 0.8 1007359
16:00−11ne6994100 0.9 1008416
19:00−12ne5993100 1.5 1009408
22:00−13nne489496 0.1 1011318
2 march, tue
tue201:00−17nne349795 0.2 101467
04:00−19nne339888 0.0 101530
07:00−19nne229888 0.1 101720
10:00−19ne119790 0.1 101724
13:00−15se119192 0.1 1017254
16:00−13s2289100 0.1 1017374
19:00−15s119699 0.3 101620
22:00−16sse129798 0.1 101621
3 march, wed
wed301:00−16s129796 0.2 101520
04:00−17s019788 0.2 101420
07:00−17nw009794 0.4 101520
10:00−16wsw119692 0.1 101651
13:00−14wsw229087 0.1 1017311
16:00−12sw3490100 0.0 1018432
19:00−15ssw3495100 0.1 101951
22:00−18s369793 0.0 102096
4 march, thu
thu401:00−17s499596 0.0 1020231
04:00−17s5109499 0.0 1019268
07:00−16sse5109499 0.0 1019275
10:00−15sse61193100 0.0 1017289
13:00−12sse61191100 0.0 1016342
16:00−10sse71290100 0.0 1014364
19:00−11sse6129086 0.0 1012345
22:00−10sse61390100 0.0 1011369